Time,TemperatureF,DewpointF,PressureIn,WindDirection,WindDirectionDegrees,WindSpeedMPH,WindSpeedGustMPH,Humidity,HourlyPrecipIn,Conditions,Clouds,dailyrainin,SoftwareType,DateUTC
2013-03-16 00:00:00,55.5,40.5,30.15,SSW,211,0.0,0.0,57,0.00,CLR,,0.01,WeatherDisplay:10.37,2013-03-16 04:00:00,
2013-03-16 00:05:00,55.6,40.1,30.15,West,263,1.1,0.0,56,0.00,RA,,0.00,WeatherDisplay:10.37,2013-03-16 04:05:00,
2013-03-16 00:10:00,55.7,40.2,30.15,SSW,192,1.1,0.0,56,0.00,CLR,,0.00,WeatherDisplay:10.37,2013-03-16 04:10:00,
2013-03-16 00:15:00,55.7,40.2,30.15,SW,215,2.0,2.0,56,0.00,CLR,,0.00,WeatherDisplay:10.37,2013-03-16 04:15:00,
2013-03-16 00:20:00,55.7,40.2,30.15,West,271,0.0,0.0,56,0.00,CLR,,0.00,WeatherDisplay:10.37,2013-03-16 04:20:00,
2013-03-16 00:25:00,55.7,40.2,30.15,SW,220,3.5,3.5,56,0.00,CLR,,0.00,WeatherDisplay:10.37,2013-03-16 04:25:00,
2013-03-16 00:30:00,55.6,40.1,30.15,SW,220,0.0,0.0,56,0.00,CLR,,0.00,WeatherDisplay:10.37,2013-03-16 04:30:00,
2013-03-16 00:35:00,55.6,40.6,30.15,WSW,250,0.0,0.0,57,0.00,CLR,,0.00,WeatherDisplay:10.37,2013-03-16 04:35:00,
2013-03-16 00:40:00,55.5,40.5,30.15,SW,215,4.6,4.6,57,0.00,CLR,,0.00,WeatherDisplay:10.37,2013-03-16 04:40:00,
2013-03-16 00:45:00,55.3,40.8,30.15,SW,215,1.1,1.1,58,0.00,CLR,,0.00,WeatherDisplay:10.37,2013-03-16 04:45:00,
2013-03-16 00:50:00,55.2,40.7,30.14,SW,215,0.0,0.0,58,0.00,CLR,,0.00,WeatherDisplay:10.37,2013-03-16 04:50:00,
2013-03-16 00:55:00,55.1,41.5,30.14,SW,215,0.0,0.0,60,0.00,CLR,,0.00,WeatherDisplay:10.37,2013-03-16 04:55:00,
2013-03-16 01:00:00,54.9,41.7,30.14,SW,215,0.0,0.0,61,0.00,CLR,,0.00,WeatherDisplay:10.37,2013-03-16 05:00:00,
2013-03-16 01:05:00,54.7,41.5,30.14,SW,221,0.0,0.0,61,0.00,CLR,,0.00,WeatherDisplay:10.37,2013-03-16 05:05:00,
2013-03-16 01:10:00,54.5,41.7,30.14,SW,223,1.1,1.1,62,0.00,CLR,,0.00,WeatherDisplay:10.37,2013-03-16 05:10:00,
2013-03-16 01:15:00,54.3,42.4,30.14,SW,223,0.0,0.0,64,0.00,CLR,,0.00,WeatherDisplay:10.37,2013-03-16 05:15:00,
2013-03-16 01:20:00,54.1,42.2,30.13,SW,223,0.0,0.0,64,0.00,CLR,,0.00,WeatherDisplay:10.37,2013-03-16 05:20:00,
2013-03-16 01:25:00,53.9,42.4,30.13,SW,223,0.0,0.0,65,0.00,CLR,,0.00,WeatherDisplay:10.37,2013-03-16 05:25:00,
2013-03-16 01:30:00,53.7,42.2,30.13,SW,223,0.0,0.0,65,0.00,CLR,,0.00,WeatherDisplay:10.37,2013-03-16 05:30:00,
2013-03-16 01:35:00,53.5,42.4,30.13,SW,223,0.0,0.0,66,0.00,CLR,,0.00,WeatherDisplay:10.37,2013-03-16 05:35:00,
2013-03-16 01:40:00,53.3,42.6,30.13,SW,223,0.0,0.0,67,0.00,CLR,,0.00,WeatherDisplay:10.37,2013-03-16 05:40:00,
2013-03-16 01:45:00,53.2,42.9,30.13,SW,223,0.0,0.0,68,0.00,CLR,,0.00,WeatherDisplay:10.37,2013-03-16 05:45:00,
2013-03-16 01:51:00,53.0,42.7,30.12,SW,223,0.0,0.0,68,0.00,CLR,,0.00,WeatherDisplay:10.37,2013-03-16 05:51:00,
2013-03-16 01:56:00,52.9,43.0,30.12,SW,225,0.0,0.0,69,0.00,CLR,,0.00,WeatherDisplay:10.37,2013-03-16 05:56:00,
2013-03-16 02:01:00,52.8,43.3,30.12,SW,225,0.0,0.0,70,0.00,CLR,,0.00,WeatherDisplay:10.37,2013-03-16 06:01:00,
2013-03-16 02:06:00,52.7,43.2,30.12,SW,217,0.0,0.0,70,0.00,CLR,,0.00,WeatherDisplay:10.37,2013-03-16 06:06:00,
2013-03-16 02:11:00,52.6,43.5,30.12,South,182,1.1,1.1,71,0.00,CLR,,0.00,WeatherDisplay:10.37,2013-03-16 06:11:00,
2013-03-16 02:16:00,52.5,43.7,30.12,South,190,0.0,0.0,72,0.00,CLR,,0.00,WeatherDisplay:10.37,2013-03-16 06:16:00,
2013-03-16 02:21:00,52.4,43.6,30.12,SSW,195,3.5,3.5,72,0.00,CLR,,0.00,WeatherDisplay:10.37,2013-03-16 06:21:00,
2013-03-16 02:26:00,52.4,43.6,30.12,SW,228,0.0,0.0,72,0.00,CLR,,0.00,WeatherDisplay:10.37,2013-03-16 06:26:00,
2013-03-16 02:31:00,52.3,43.9,30.12,SW,228,0.0,0.0,73,0.00,CLR,,0.00,WeatherDisplay:10.37,2013-03-16 06:31:00,
2013-03-16 02:36:00,52.3,43.9,30.11,WSW,238,1.0,0.0,73,0.00,CLR,,0.00,WeatherDisplay:10.37,2013-03-16 06:36:00,
2013-03-16 02:41:00,52.2,44.2,30.11,WSW,244,0.0,0.0,74,0.00,CLR,,0.00,WeatherDisplay:10.37,2013-03-16 06:41:00,
2013-03-16 02:46:00,52.1,44.1,30.11,WSW,244,0.0,0.0,74,0.00,CLR,,0.00,WeatherDisplay:10.37,2013-03-16 06:46:00,
2013-03-16 02:51:00,52.0,44.3,30.11,SSE,162,0.0,0.0,75,0.00,CLR,,0.00,WeatherDisplay:10.37,2013-03-16 06:51:00,
2013-03-16 02:56:00,51.9,44.2,30.11,SSE,162,0.0,0.0,75,0.00,CLR,,0.00,WeatherDisplay:10.37,2013-03-16 06:56:00,
2013-03-16 03:01:00,51.8,44.1,30.11,WSW,253,0.0,0.0,75,0.00,CLR,,0.00,WeatherDisplay:10.37,2013-03-16 07:01:00,
2013-03-16 03:06:00,51.7,44.0,30.11,South,177,0.0,0.0,75,0.00,CLR,,0.00,WeatherDisplay:10.37,2013-03-16 07:06:00,
2013-03-16 03:11:00,51.6,44.3,30.11,East,80,1.1,0.0,76,0.00,CLR,,0.00,WeatherDisplay:10.37,2013-03-16 07:11:00,
2013-03-16 03:16:00,51.5,44.2,30.10,East,80,0.0,0.0,76,0.00,CLR,,0.00,WeatherDisplay:10.37,2013-03-16 07:16:00,
2013-03-16 03:21:00,51.4,44.4,30.10,East,80,0.0,0.0,77,0.00,CLR,,0.00,WeatherDisplay:10.37,2013-03-16 07:21:00,
2013-03-16 03:26:00,51.3,44.7,30.11,East,80,0.0,0.0,78,0.00,CLR,,0.00,WeatherDisplay:10.37,2013-03-16 07:26:00,
2013-03-16 03:31:00,51.2,44.6,30.11,East,80,0.0,0.0,78,0.00,CLR,,0.00,WeatherDisplay:10.37,2013-03-16 07:31:00,
2013-03-16 03:36:00,51.0,44.4,30.11,ENE,78,0.0,0.0,78,0.00,CLR,,0.00,WeatherDisplay:10.37,2013-03-16 07:36:00,
2013-03-16 03:41:00,50.9,44.3,30.11,East,80,0.0,0.0,78,0.00,CLR,,0.00,WeatherDisplay:10.37,2013-03-16 07:41:00,
2013-03-16 03:46:00,50.8,44.5,30.11,East,80,0.0,0.0,79,0.00,CLR,,0.00,WeatherDisplay:10.37,2013-03-16 07:46:00,
2013-03-16 03:51:00,50.7,44.8,30.11,East,80,0.0,0.0,80,0.00,CLR,,0.00,WeatherDisplay:10.37,2013-03-16 07:51:00,
2013-03-16 03:56:00,50.5,44.6,30.11,East,80,0.0,0.0,80,0.00,CLR,,0.00,WeatherDisplay:10.37,2013-03-16 07:56:00,
2013-03-16 04:01:00,50.4,44.5,30.11,East,80,0.0,0.0,80,0.00,CLR,,0.00,WeatherDisplay:10.37,2013-03-16 08:01:00,
2013-03-16 04:06:00,50.2,44.3,30.10,East,80,0.0,0.0,80,0.00,CLR,,0.00,WeatherDisplay:10.37,2013-03-16 08:06:00,
2013-03-16 04:11:00,50.1,44.5,30.11,East,80,0.0,0.0,81,0.00,CLR,,0.00,WeatherDisplay:10.37,2013-03-16 08:11:00,
2013-03-16 04:16:00,49.9,44.3,30.10,East,80,0.0,0.0,81,0.00,CLR,,0.00,WeatherDisplay:10.37,2013-03-16 08:16:00,
2013-03-16 04:21:00,49.8,44.5,30.10,East,80,0.0,0.0,82,0.00,CLR,,0.00,WeatherDisplay:10.37,2013-03-16 08:21:00,
2013-03-16 04:26:00,49.7,44.4,30.10,East,80,0.0,0.0,82,0.00,CLR,,0.00,WeatherDisplay:10.37,2013-03-16 08:26:00,
2013-03-16 04:31:00,49.6,44.6,30.10,East,80,0.0,0.0,83,0.00,CLR,,0.00,WeatherDisplay:10.37,2013-03-16 08:31:00,
2013-03-16 04:36:00,49.5,44.9,30.10,SSW,200,0.0,0.0,84,0.00,CLR,,0.00,WeatherDisplay:10.37,2013-03-16 08:36:00,
2013-03-16 04:41:00,49.5,44.6,30.10,SSW,200,0.0,0.0,83,0.00,CLR,,0.00,WeatherDisplay:10.37,2013-03-16 08:41:00,
2013-03-16 04:46:00,49.4,44.8,30.10,SSW,200,0.0,0.0,84,0.00,CLR,,0.00,WeatherDisplay:10.37,2013-03-16 08:46:00,
2013-03-16 04:51:00,49.4,44.8,30.10,SSW,200,0.0,0.0,84,0.00,CLR,,0.00,WeatherDisplay:10.37,2013-03-16 08:51:00,
2013-03-16 04:56:00,49.3,44.7,30.10,SSW,200,0.0,0.0,84,0.00,CLR,,0.00,WeatherDisplay:10.37,2013-03-16 08:56:00,
2013-03-16 05:01:00,49.2,44.9,30.09,SSW,200,0.0,0.0,85,0.00,CLR,,0.00,WeatherDisplay:10.37,2013-03-16 09:01:00,
2013-03-16 05:06:00,49.1,44.8,30.09,SSW,200,0.0,0.0,85,0.00,CLR,,0.00,WeatherDisplay:10.37,2013-03-16 09:06:00,
2013-03-16 05:11:00,49.0,44.7,30.10,SSW,200,0.0,0.0,85,0.00,CLR,,0.00,WeatherDisplay:10.37,2013-03-16 09:11:00,
2013-03-16 05:16:00,48.9,44.9,30.10,SSW,200,0.0,0.0,86,0.00,CLR,,0.00,WeatherDisplay:10.37,2013-03-16 09:16:00,
2013-03-16 05:21:00,48.8,44.8,30.10,SSW,200,0.0,0.0,86,0.00,CLR,,0.00,WeatherDisplay:10.37,2013-03-16 09:21:00,
2013-03-16 05:26:00,48.7,44.7,30.10,SSW,200,0.0,0.0,86,0.00,CLR,,0.00,WeatherDisplay:10.37,2013-03-16 09:26:00,
2013-03-16 05:31:00,48.5,44.5,30.10,SSW,200,0.0,0.0,86,0.00,CLR,,0.00,WeatherDisplay:10.37,2013-03-16 09:31:00,
2013-03-16 05:36:00,48.4,44.4,30.09,SSW,200,0.0,0.0,86,0.00,CLR,,0.00,WeatherDisplay:10.37,2013-03-16 09:36:00,
2013-03-16 05:41:00,48.3,44.6,30.09,SSW,200,0.0,0.0,87,0.00,CLR,,0.00,WeatherDisplay:10.37,2013-03-16 09:41:00,
2013-03-16 05:46:00,48.1,44.4,30.10,SSW,200,0.0,0.0,87,0.00,CLR,,0.00,WeatherDisplay:10.37,2013-03-16 09:46:00,
2013-03-16 05:51:00,47.9,44.5,30.10,SSW,200,0.0,0.0,88,0.00,CLR,,0.00,WeatherDisplay:10.37,2013-03-16 09:51:00,
2013-03-16 05:56:00,47.8,44.4,30.10,SSW,200,0.0,0.0,88,0.00,CLR,,0.00,WeatherDisplay:10.37,2013-03-16 09:56:00,
2013-03-16 06:01:00,47.6,44.5,30.10,SSW,200,0.0,0.0,89,0.00,CLR,,0.00,WeatherDisplay:10.37,2013-03-16 10:01:00,
2013-03-16 06:06:00,47.5,44.4,30.10,SSW,200,0.0,0.0,89,0.00,CLR,,0.00,WeatherDisplay:10.37,2013-03-16 10:06:00,
2013-03-16 06:11:00,47.3,44.2,30.09,SSW,200,0.0,0.0,89,0.00,CLR,,0.00,WeatherDisplay:10.37,2013-03-16 10:11:00,
2013-03-16 06:16:00,47.1,44.3,30.09,SSW,200,0.0,0.0,90,0.00,CLR,,0.00,WeatherDisplay:10.37,2013-03-16 10:16:00,
2013-03-16 06:21:00,47.1,44.3,30.09,SSW,200,0.0,0.0,90,0.00,CLR,,0.00,WeatherDisplay:10.37,2013-03-16 10:21:00,
2013-03-16 06:26:00,47.1,44.3,30.09,SSW,200,0.0,0.0,90,0.00,CLR,,0.00,WeatherDisplay:10.37,2013-03-16 10:26:00,
2013-03-16 06:31:00,47.1,44.3,30.10,SSW,200,0.0,0.0,90,0.00,CLR,,0.00,WeatherDisplay:10.37,2013-03-16 10:31:00,
2013-03-16 06:36:00,47.1,44.3,30.10,SSW,200,0.0,0.0,90,0.00,CLR,,0.00,WeatherDisplay:10.37,2013-03-16 10:36:00,
2013-03-16 06:41:00,47.1,44.6,30.10,SSW,200,0.0,0.0,91,0.00,CLR,,0.00,WeatherDisplay:10.37,2013-03-16 10:41:00,
2013-03-16 06:46:00,47.0,44.5,30.10,SSW,200,0.0,0.0,91,0.00,CLR,,0.00,WeatherDisplay:10.37,2013-03-16 10:46:00,
2013-03-16 06:51:00,47.0,44.5,30.11,SSW,200,0.0,0.0,91,0.00,CLR,,0.00,WeatherDisplay:10.37,2013-03-16 10:51:00,
2013-03-16 06:56:00,46.9,44.7,30.11,SSW,200,0.0,0.0,92,0.00,CLR,,0.00,WeatherDisplay:10.37,2013-03-16 10:56:00,
2013-03-16 07:01:00,46.9,44.7,30.11,SSW,200,0.0,0.0,92,0.00,CLR,,0.00,WeatherDisplay:10.37,2013-03-16 11:01:00,
2013-03-16 07:06:00,46.8,44.6,30.11,SSW,200,0.0,0.0,92,0.00,CLR,,0.00,WeatherDisplay:10.37,2013-03-16 11:06:00,
2013-03-16 07:11:00,46.7,44.5,30.11,SSW,200,0.0,0.0,92,0.00,CLR,,0.00,WeatherDisplay:10.37,2013-03-16 11:11:00,
2013-03-16 07:16:00,46.6,44.4,30.11,SSW,200,0.0,0.0,92,0.00,CLR,,0.00,WeatherDisplay:10.37,2013-03-16 11:16:00,
2013-03-16 07:21:00,46.5,44.3,30.11,SSW,200,0.0,0.0,92,0.00,CLR,,0.00,WeatherDisplay:10.37,2013-03-16 11:21:00,
2013-03-16 07:26:00,46.5,44.3,30.11,SSW,200,0.0,0.0,92,0.00,CLR,,0.00,WeatherDisplay:10.37,2013-03-16 11:26:00,
2013-03-16 07:31:00,46.4,44.2,30.11,SSW,200,0.0,0.0,92,0.00,CLR,,0.00,WeatherDisplay:10.37,2013-03-16 11:31:00,
2013-03-16 07:36:00,46.3,44.4,30.11,SSW,200,0.0,0.0,93,0.00,CLR,,0.00,WeatherDisplay:10.37,2013-03-16 11:36:00,
2013-03-16 07:41:00,46.3,44.4,30.12,SSW,200,0.0,0.0,93,0.00,CLR,,0.00,WeatherDisplay:10.37,2013-03-16 11:41:00,
2013-03-16 07:46:00,46.2,44.3,30.12,SSW,200,0.0,0.0,93,0.00,CLR,,0.00,WeatherDisplay:10.37,2013-03-16 11:46:00,
2013-03-16 07:51:00,46.2,44.3,30.12,SSW,200,0.0,0.0,93,0.00,CLR,,0.00,WeatherDisplay:10.37,2013-03-16 11:51:00,
2013-03-16 07:56:00,46.1,44.2,30.12,SSW,200,0.0,0.0,93,0.00,CLR,,0.00,WeatherDisplay:10.37,2013-03-16 11:56:00,
2013-03-16 08:01:00,46.1,44.2,30.12,SSW,200,0.0,0.0,93,0.00,CLR,,0.00,WeatherDisplay:10.37,2013-03-16 12:01:00,
2013-03-16 08:06:00,46.1,44.2,30.12,SSW,200,0.0,0.0,93,0.00,CLR,,0.00,WeatherDisplay:10.37,2013-03-16 12:06:00,
2013-03-16 08:11:00,46.2,44.6,30.12,SSW,200,0.0,0.0,94,0.00,CLR,,0.00,WeatherDisplay:10.37,2013-03-16 12:11:00,
2013-03-16 08:16:00,46.4,44.8,30.12,SSW,200,0.0,0.0,94,0.00,CLR,,0.00,WeatherDisplay:10.37,2013-03-16 12:16:00,
2013-03-16 08:21:00,46.6,45.0,30.12,SSW,200,0.0,0.0,94,0.00,CLR,,0.00,WeatherDisplay:10.37,2013-03-16 12:21:00,
2013-03-16 08:26:00,47.0,45.4,30.12,SSW,200,0.0,0.0,94,0.00,CLR,,0.00,WeatherDisplay:10.37,2013-03-16 12:26:00,
2013-03-16 08:31:00,47.6,46.2,30.12,SSW,200,0.0,0.0,95,0.00,CLR,,0.00,WeatherDisplay:10.37,2013-03-16 12:31:00,
2013-03-16 08:36:00,48.2,46.6,30.13,SSW,200,0.0,0.0,94,0.00,CLR,,0.00,WeatherDisplay:10.37,2013-03-16 12:36:00,
2013-03-16 08:41:00,48.9,47.0,30.13,SSW,200,0.0,0.0,93,0.00,CLR,,0.00,WeatherDisplay:10.37,2013-03-16 12:41:00,
2013-03-16 08:46:00,49.7,47.8,30.13,SSW,202,1.1,0.0,93,0.00,CLR,,0.00,WeatherDisplay:10.37,2013-03-16 12:46:00,
2013-03-16 08:51:00,50.6,48.4,30.13,West,263,2.3,0.0,92,0.00,CLR,,0.00,WeatherDisplay:10.37,2013-03-16 12:51:00,
2013-03-16 08:56:00,51.7,49.2,30.13,West,263,1.0,1.0,91,0.00,CLR,,0.00,WeatherDisplay:10.37,2013-03-16 12:56:00,
2013-03-16 09:01:00,52.9,49.7,30.13,WSW,237,3.5,0.0,89,0.00,CLR,,0.00,WeatherDisplay:10.37,2013-03-16 13:01:00,
2013-03-16 09:06:00,54.1,50.0,30.13,WSW,237,0.0,0.0,86,0.00,CLR,,0.00,WeatherDisplay:10.37,2013-03-16 13:06:00,
2013-03-16 09:11:00,54.8,50.4,30.13,WSW,237,0.0,0.0,85,0.00,CLR,,0.00,WeatherDisplay:10.37,2013-03-16 13:11:00,
2013-03-16 09:16:00,55.5,51.1,30.13,WSW,237,0.0,0.0,85,0.00,CLR,,0.00,WeatherDisplay:10.37,2013-03-16 13:16:00,
2013-03-16 09:21:00,56.2,51.1,30.13,NW,308,1.1,1.1,83,0.00,CLR,,0.00,WeatherDisplay:10.37,2013-03-16 13:21:00,
2013-03-16 09:26:00,56.8,51.4,30.13,West,270,0.0,0.0,82,0.00,CLR,,0.00,WeatherDisplay:10.37,2013-03-16 13:26:00,
2013-03-16 09:31:00,57.5,51.4,30.13,SSE,150,1.1,1.1,80,0.00,CLR,,0.00,WeatherDisplay:10.37,2013-03-16 13:31:00,
2013-03-16 09:36:00,58.2,51.4,30.13,SW,229,1.1,1.2,78,0.00,CLR,,0.00,WeatherDisplay:10.37,2013-03-16 13:36:00,
2013-03-16 09:41:00,58.9,51.7,30.13,West,272,2.3,2.3,77,0.00,CLR,,0.00,WeatherDisplay:10.37,2013-03-16 13:41:00,
2013-03-16 09:46:00,59.5,51.9,30.13,SW,217,2.0,2.0,76,0.00,CLR,,0.00,WeatherDisplay:10.37,2013-03-16 13:46:00,
2013-03-16 09:51:00,60.0,52.1,30.13,WSW,241,6.9,6.9,75,0.00,CLR,,0.00,WeatherDisplay:10.37,2013-03-16 13:51:00,
2013-03-16 09:56:00,60.7,52.7,30.14,WSW,252,2.0,2.0,75,0.00,CLR,,0.00,WeatherDisplay:10.37,2013-03-16 13:56:00,
2013-03-16 10:01:00,61.4,53.0,30.14,SSW,194,1.1,1.1,74,0.00,CLR,,0.00,WeatherDisplay:10.37,2013-03-16 14:01:00,
2013-03-16 10:06:00,62.1,52.6,30.14,West,270,3.5,3.5,71,0.00,CLR,,0.00,WeatherDisplay:10.37,2013-03-16 14:06:00,
2013-03-16 10:11:00,62.6,52.7,30.13,West,279,3.5,3.5,70,0.00,CLR,,0.00,WeatherDisplay:10.37,2013-03-16 14:11:00,
2013-03-16 10:16:00,63.0,53.1,30.13,North,5,3.5,3.5,70,0.00,CLR,,0.00,WeatherDisplay:10.37,2013-03-16 14:16:00,
2013-03-16 10:21:00,63.4,53.4,30.13,NNW,337,1.1,1.1,70,0.00,CLR,,0.00,WeatherDisplay:10.37,2013-03-16 14:21:00,
2013-03-16 10:26:00,64.0,54.0,30.13,WSW,256,1.1,1.1,70,0.00,CLR,,0.00,WeatherDisplay:10.37,2013-03-16 14:26:00,
2013-03-16 10:31:00,64.6,54.2,30.13,East,86,1.1,0.0,69,0.00,CLR,,0.00,WeatherDisplay:10.37,2013-03-16 14:31:00,
2013-03-16 10:36:00,65.0,53.8,30.13,SW,218,3.5,0.0,67,0.00,CLR,,0.00,WeatherDisplay:10.37,2013-03-16 14:36:00,
2013-03-16 10:41:00,65.6,53.9,30.12,WSW,246,1.1,1.1,66,0.00,CLR,,0.00,WeatherDisplay:10.37,2013-03-16 14:41:00,
2013-03-16 10:46:00,66.2,54.1,30.13,WNW,283,1.1,1.1,65,0.00,CLR,,0.00,WeatherDisplay:10.37,2013-03-16 14:46:00,
2013-03-16 10:51:00,66.8,53.4,30.13,SW,229,3.5,3.5,62,0.00,CLR,,0.00,WeatherDisplay:10.37,2013-03-16 14:51:00,
2013-03-16 10:56:00,67.1,54.1,30.13,NNW,348,3.5,3.5,63,0.00,CLR,,0.00,WeatherDisplay:10.37,2013-03-16 14:56:00,
2013-03-16 11:01:00,67.3,53.8,30.13,NW,319,3.5,3.5,62,0.00,CLR,,0.00,WeatherDisplay:10.37,2013-03-16 15:01:00,
2013-03-16 11:06:00,67.6,54.1,30.13,West,263,4.6,4.6,62,0.00,CLR,,0.00,WeatherDisplay:10.37,2013-03-16 15:06:00,
2013-03-16 11:11:00,68.3,53.9,30.12,WSW,255,3.5,3.5,60,0.00,CLR,,0.00,WeatherDisplay:10.37,2013-03-16 15:11:00,
2013-03-16 11:16:00,68.8,53.9,30.12,WSW,254,3.5,3.5,59,0.00,CLR,,0.00,WeatherDisplay:10.37,2013-03-16 15:16:00,
2013-03-16 11:21:00,69.4,54.4,30.13,NNW,336,5.0,5.0,59,0.00,CLR,,0.00,WeatherDisplay:10.37,2013-03-16 15:21:00,
2013-03-16 11:26:00,69.8,53.4,30.13,West,275,2.3,2.3,56,0.00,CLR,,0.00,WeatherDisplay:10.37,2013-03-16 15:26:00,
2013-03-16 11:31:00,70.2,53.8,30.12,North,5,3.5,3.5,56,0.00,CLR,,0.00,WeatherDisplay:10.37,2013-03-16 15:31:00,
2013-03-16 11:36:00,70.5,53.6,30.12,NNW,342,3.5,3.5,55,0.00,CLR,,0.00,WeatherDisplay:10.37,2013-03-16 15:36:00,
2013-03-16 11:41:00,70.8,53.8,30.12,West,279,5.8,5.8,55,0.00,CLR,,0.00,WeatherDisplay:10.37,2013-03-16 15:41:00,
2013-03-16 11:46:00,71.1,54.6,30.12,SW,222,3.0,3.0,56,0.00,CLR,,0.00,WeatherDisplay:10.37,2013-03-16 15:46:00,
2013-03-16 11:51:00,71.3,53.3,30.12,NNW,348,4.0,4.0,53,0.00,CLR,,0.00,WeatherDisplay:10.37,2013-03-16 15:51:00,
2013-03-16 11:56:00,71.6,53.6,30.11,SSW,212,3.5,3.5,53,0.00,CLR,,0.00,WeatherDisplay:10.37,2013-03-16 15:56:00,
2013-03-16 12:01:00,71.9,53.8,30.11,SSW,213,1.1,1.1,53,0.00,CLR,,0.00,WeatherDisplay:10.37,2013-03-16 16:01:00,
2013-03-16 12:07:00,72.3,54.7,30.11,ESE,118,2.3,2.3,54,0.00,CLR,,0.00,WeatherDisplay:10.37,2013-03-16 16:07:00,
2013-03-16 12:12:00,72.4,53.8,30.11,WSW,242,4.6,4.6,52,0.00,CLR,,0.00,WeatherDisplay:10.37,2013-03-16 16:12:00,
2013-03-16 12:17:00,72.7,54.1,30.10,SW,234,2.3,2.3,52,0.00,CLR,,0.00,WeatherDisplay:10.37,2013-03-16 16:17:00,
2013-03-16 12:22:00,73.2,54.5,30.10,WSW,252,5.0,5.0,52,0.00,CLR,,0.00,WeatherDisplay:10.37,2013-03-16 16:22:00,
2013-03-16 12:27:00,73.3,54.1,30.10,WNW,290,3.5,3.5,51,0.00,CLR,,0.00,WeatherDisplay:10.37,2013-03-16 16:27:00,
2013-03-16 12:32:00,73.5,54.3,30.10,West,279,3.5,3.5,51,0.00,CLR,,0.00,WeatherDisplay:10.37,2013-03-16 16:32:00,
2013-03-16 12:37:00,73.9,54.6,30.09,SW,216,4.6,4.6,51,0.00,CLR,,0.00,WeatherDisplay:10.37,2013-03-16 16:37:00,
2013-03-16 12:42:00,74.1,53.7,30.09,SW,233,6.9,6.9,49,0.00,CLR,,0.00,WeatherDisplay:10.37,2013-03-16 16:42:00,
2013-03-16 12:47:00,74.6,55.8,30.09,WSW,258,2.3,0.0,52,0.00,CLR,,0.00,WeatherDisplay:10.37,2013-03-16 16:47:00,
2013-03-16 12:52:00,75.2,55.3,30.09,WSW,251,1.1,1.1,50,0.00,CLR,,0.00,WeatherDisplay:10.37,2013-03-16 16:52:00,
2013-03-16 12:57:00,75.7,56.3,30.08,West,271,1.1,0.0,51,0.00,CLR,,0.00,WeatherDisplay:10.37,2013-03-16 16:57:00,
2013-03-16 13:02:00,76.3,55.2,30.08,NNW,342,1.1,1.1,48,0.00,CLR,,0.00,WeatherDisplay:10.37,2013-03-16 17:02:00,
2013-03-16 13:07:00,76.7,54.4,30.08,NW,321,3.5,3.5,46,0.00,CLR,,0.00,WeatherDisplay:10.37,2013-03-16 17:07:00,
2013-03-16 13:12:00,76.9,54.5,30.08,NNE,12,3.5,3.5,46,0.00,CLR,,0.00,WeatherDisplay:10.37,2013-03-16 17:12:00,
2013-03-16 13:17:00,77.1,52.9,30.07,North,9,3.5,3.5,43,0.00,CLR,,0.00,WeatherDisplay:10.37,2013-03-16 17:17:00,
2013-03-16 13:22:00,77.1,53.5,30.07,WSW,245,3.5,3.5,44,0.00,CLR,,0.00,WeatherDisplay:10.37,2013-03-16 17:22:00,
2013-03-16 13:27:00,77.2,53.0,30.07,WSW,252,4.6,4.6,43,0.00,CLR,,0.00,WeatherDisplay:10.37,2013-03-16 17:27:00,
2013-03-16 13:32:00,77.6,52.7,30.07,WNW,290,2.3,2.3,42,0.00,CLR,,0.00,WeatherDisplay:10.37,2013-03-16 17:32:00,
2013-03-16 13:37:00,77.7,52.1,30.07,WSW,250,4.6,4.6,41,0.00,CLR,,0.00,WeatherDisplay:10.37,2013-03-16 17:37:00,
2013-03-16 13:42:00,77.8,54.8,30.07,NNW,329,3.5,3.5,45,0.00,CLR,,0.00,WeatherDisplay:10.37,2013-03-16 17:42:00,
2013-03-16 13:47:00,77.9,51.6,30.07,WSW,242,10.4,10.4,40,0.00,CLR,,0.00,WeatherDisplay:10.37,2013-03-16 17:47:00,
2013-03-16 13:52:00,78.0,54.3,30.06,SW,232,4.0,4.0,44,0.00,CLR,,0.00,WeatherDisplay:10.37,2013-03-16 17:52:00,
2013-03-16 13:57:00,78.0,53.0,30.06,SSW,196,1.1,1.1,42,0.00,CLR,,0.00,WeatherDisplay:10.37,2013-03-16 17:57:00,
2013-03-16 14:02:00,78.2,55.1,30.05,SW,217,1.1,1.1,45,0.00,CLR,,0.00,WeatherDisplay:10.37,2013-03-16 18:02:00,
2013-03-16 14:07:00,78.5,54.8,30.05,North,355,4.6,4.6,44,0.00,CLR,,0.00,WeatherDisplay:10.37,2013-03-16 18:07:00,
2013-03-16 14:13:00,78.9,57.0,30.05,NW,315,4.6,4.6,47,0.00,CLR,,0.00,WeatherDisplay:10.37,2013-03-16 18:13:00,
2013-03-16 14:18:00,79.2,53.5,30.05,North,355,4.6,4.6,41,0.00,CLR,,0.00,WeatherDisplay:10.37,2013-03-16 18:18:00,
2013-03-16 14:23:00,79.1,52.7,30.05,SSE,163,9.2,9.2,40,0.00,CLR,,0.00,WeatherDisplay:10.37,2013-03-16 18:23:00,
2013-03-16 14:28:00,78.7,55.6,30.04,SW,223,0.0,0.5,45,0.00,CLR,,0.00,WeatherDisplay:10.37,2013-03-16 18:28:00,
2013-03-16 14:33:00,78.9,54.5,30.04,SW,217,7.0,7.0,43,0.00,CLR,,0.00,WeatherDisplay:10.37,2013-03-16 18:33:00,
2013-03-16 14:38:00,79.1,57.1,30.03,North,360,4.6,4.6,47,0.00,CLR,,0.00,WeatherDisplay:10.37,2013-03-16 18:38:00,
2013-03-16 14:43:00,79.5,52.4,30.04,SSW,207,4.0,4.0,39,0.00,CLR,,0.00,WeatherDisplay:10.37,2013-03-16 18:43:00,
2013-03-16 14:48:00,79.5,52.4,30.03,SW,232,8.1,8.1,39,0.00,CLR,,0.00,WeatherDisplay:10.37,2013-03-16 18:48:00,
2013-03-16 14:53:00,79.6,53.1,30.03,NNW,347,4.6,4.6,40,0.00,CLR,,0.00,WeatherDisplay:10.37,2013-03-16 18:53:00,
2013-03-16 14:58:00,79.6,51.8,30.03,North,360,4.6,4.6,38,0.00,CLR,,0.00,WeatherDisplay:10.37,2013-03-16 18:58:00,
2013-03-16 15:03:00,79.7,50.4,30.02,WNW,300,8.1,8.1,36,0.00,CLR,,0.00,WeatherDisplay:10.37,2013-03-16 19:03:00,
2013-03-16 15:08:00,79.6,51.8,30.02,SSW,200,9.2,9.2,38,0.00,CLR,,0.00,WeatherDisplay:10.37,2013-03-16 19:08:00,
2013-03-16 15:13:00,79.5,50.9,30.02,WSW,238,5.0,5.0,37,0.00,CLR,,0.00,WeatherDisplay:10.37,2013-03-16 19:13:00,
2013-03-16 15:18:00,79.4,50.9,30.02,WSW,248,3.5,3.5,37,0.00,CLR,,0.00,WeatherDisplay:10.37,2013-03-16 19:18:00,
2013-03-16 15:23:00,79.5,49.4,30.02,North,355,5.8,5.8,35,0.00,CLR,,0.00,WeatherDisplay:10.37,2013-03-16 19:23:00,
2013-03-16 15:28:00,79.8,48.9,30.00,SSE,154,11.5,11.5,34,0.00,CLR,,0.00,WeatherDisplay:10.37,2013-03-16 19:28:00,
2013-03-16 15:33:00,79.6,48.8,30.01,West,270,8.1,8.1,34,0.00,CLR,,0.00,WeatherDisplay:10.37,2013-03-16 19:33:00,
2013-03-16 15:38:00,79.4,50.1,30.01,SW,225,4.6,4.6,36,0.00,CLR,,0.00,WeatherDisplay:10.37,2013-03-16 19:38:00,
2013-03-16 15:43:00,79.6,49.5,30.00,South,171,9.0,9.0,35,0.00,CLR,,0.00,WeatherDisplay:10.37,2013-03-16 19:43:00,
2013-03-16 15:48:00,79.6,49.5,30.00,WSW,252,4.6,4.6,35,0.00,CLR,,0.00,WeatherDisplay:10.37,2013-03-16 19:48:00,
2013-03-16 15:53:00,79.7,49.6,30.00,SSW,208,5.8,5.8,35,0.00,CLR,,0.00,WeatherDisplay:10.37,2013-03-16 19:53:00,
2013-03-16 15:58:00,79.9,52.0,30.00,NNE,23,2.3,2.5,38,0.00,CLR,,0.00,WeatherDisplay:10.37,2013-03-16 19:58:00,
2013-03-16 16:03:00,80.0,49.9,30.00,SW,231,8.1,8.1,35,0.00,CLR,,0.00,WeatherDisplay:10.37,2013-03-16 20:03:00,
2013-03-16 16:08:00,80.0,49.9,30.00,West,269,4.0,4.0,35,0.00,CLR,,0.00,WeatherDisplay:10.37,2013-03-16 20:08:00,
2013-03-16 16:13:00,80.0,51.4,30.00,NW,311,3.5,3.5,37,0.00,CLR,,0.00,WeatherDisplay:10.37,2013-03-16 20:13:00,
2013-03-16 16:18:00,80.1,50.0,29.99,West,267,6.9,6.9,35,0.00,CLR,,0.00,WeatherDisplay:10.37,2013-03-16 20:18:00,
2013-03-16 16:23:00,80.3,50.9,29.99,WSW,245,3.5,3.5,36,0.00,CLR,,0.00,WeatherDisplay:10.37,2013-03-16 20:23:00,
2013-03-16 16:28:00,80.3,50.9,29.99,SSW,208,3.0,3.0,36,0.00,CLR,,0.00,WeatherDisplay:10.37,2013-03-16 20:28:00,
2013-03-16 16:33:00,80.3,50.1,29.99,WSW,239,4.6,4.6,35,0.00,CLR,,0.00,WeatherDisplay:10.37,2013-03-16 20:33:00,
2013-03-16 16:38:00,80.3,52.4,29.99,WNW,301,3.5,3.5,38,0.00,CLR,,0.00,WeatherDisplay:10.37,2013-03-16 20:38:00,
2013-03-16 16:43:00,80.4,51.7,29.99,WSW,251,1.1,1.1,37,0.00,CLR,,0.00,WeatherDisplay:10.37,2013-03-16 20:43:00,
2013-03-16 16:49:00,80.5,50.3,29.98,WSW,256,4.0,4.0,35,0.00,CLR,,0.00,WeatherDisplay:10.37,2013-03-16 20:49:00,
2013-03-16 16:54:00,80.2,51.6,29.98,NNW,337,3.5,3.5,37,0.00,CLR,,0.00,WeatherDisplay:10.37,2013-03-16 20:54:00,
2013-03-16 16:59:00,80.2,51.6,29.98,NNW,337,5.8,5.8,37,0.00,CLR,,0.00,WeatherDisplay:10.37,2013-03-16 20:59:00,
2013-03-16 17:04:00,80.3,51.7,29.98,West,268,4.6,4.6,37,0.00,CLR,,0.00,WeatherDisplay:10.37,2013-03-16 21:04:00,
2013-03-16 17:09:00,80.0,49.9,29.98,West,266,11.5,11.5,35,0.00,CLR,,0.00,WeatherDisplay:10.37,2013-03-16 21:09:00,
2013-03-16 17:14:00,79.8,51.2,29.98,WSW,247,4.6,4.6,37,0.00,CLR,,0.00,WeatherDisplay:10.37,2013-03-16 21:14:00,
2013-03-16 17:19:00,79.7,50.4,29.98,WSW,246,3.5,3.5,36,0.00,CLR,,0.00,WeatherDisplay:10.37,2013-03-16 21:19:00,
2013-03-16 17:24:00,79.6,50.3,29.98,South,182,3.5,3.5,36,0.00,CLR,,0.00,WeatherDisplay:10.37,2013-03-16 21:24:00,
2013-03-16 17:29:00,79.7,49.6,29.98,SSW,198,3.5,3.5,35,0.00,CLR,,0.00,WeatherDisplay:10.37,2013-03-16 21:29:00,
2013-03-16 17:34:00,79.7,50.4,29.98,West,267,4.6,4.6,36,0.00,CLR,,0.00,WeatherDisplay:10.37,2013-03-16 21:34:00,
2013-03-16 17:39:00,79.8,50.5,29.98,SSW,205,7.0,7.0,36,0.00,CLR,,0.00,WeatherDisplay:10.37,2013-03-16 21:39:00,
2013-03-16 17:44:00,79.6,49.5,29.98,South,182,3.5,3.5,35,0.00,CLR,,0.00,WeatherDisplay:10.37,2013-03-16 21:44:00,
2013-03-16 17:49:00,79.5,50.2,29.98,East,82,3.5,3.5,36,0.00,CLR,,0.00,WeatherDisplay:10.37,2013-03-16 21:49:00,
2013-03-16 17:54:00,79.5,50.9,29.98,West,278,0.0,0.1,37,0.00,CLR,,0.00,WeatherDisplay:10.37,2013-03-16 21:54:00,
2013-03-16 17:59:00,79.3,49.3,29.98,WSW,255,6.9,6.9,35,0.00,CLR,,0.00,WeatherDisplay:10.37,2013-03-16 21:59:00,
2013-03-16 18:04:00,78.9,48.9,29.98,WNW,293,10.4,10.4,35,0.00,CLR,,0.00,WeatherDisplay:10.37,2013-03-16 22:04:00,
2013-03-16 18:09:00,78.5,49.3,29.98,SW,236,4.6,4.6,36,0.00,CLR,,0.00,WeatherDisplay:10.37,2013-03-16 22:09:00,
2013-03-16 18:14:00,78.1,50.4,29.98,SW,227,6.0,6.0,38,0.00,CLR,,0.00,WeatherDisplay:10.37,2013-03-16 22:14:00,
2013-03-16 18:19:00,77.7,49.3,29.98,SSE,159,11.5,11.5,37,0.00,CLR,,0.00,WeatherDisplay:10.37,2013-03-16 22:19:00,
2013-03-16 18:24:00,77.5,49.2,29.98,West,261,5.8,5.8,37,0.00,CLR,,0.00,WeatherDisplay:10.37,2013-03-16 22:24:00,
2013-03-16 18:29:00,77.3,49.7,29.98,WSW,244,6.0,6.0,38,0.00,CLR,,0.00,WeatherDisplay:10.37,2013-03-16 22:29:00,
2013-03-16 18:34:00,77.1,48.8,29.98,NE,52,3.5,3.5,37,0.00,CLR,,0.00,WeatherDisplay:10.37,2013-03-16 22:34:00,
2013-03-16 18:39:00,76.8,48.6,29.98,WSW,246,11.5,11.5,37,0.00,CLR,,0.00,WeatherDisplay:10.37,2013-03-16 22:39:00,
2013-03-16 18:44:00,76.6,48.4,29.98,WSW,240,3.5,3.5,37,0.00,CLR,,0.00,WeatherDisplay:10.37,2013-03-16 22:44:00,
2013-03-16 18:49:00,76.4,49.6,29.98,SE,139,2.3,2.3,39,0.00,CLR,,0.00,WeatherDisplay:10.37,2013-03-16 22:49:00,
2013-03-16 18:54:00,76.2,49.4,29.99,South,188,3.5,3.5,39,0.00,CLR,,0.00,WeatherDisplay:10.37,2013-03-16 22:54:00,
2013-03-16 18:59:00,76.0,49.2,29.99,North,350,5.8,5.8,39,0.00,CLR,,0.00,WeatherDisplay:10.37,2013-03-16 22:59:00,
2013-03-16 19:04:00,75.7,49.0,29.99,WSW,248,4.6,4.6,39,0.00,CLR,,0.00,WeatherDisplay:10.37,2013-03-16 23:04:00,
2013-03-16 19:09:00,75.4,49.4,29.99,WSW,250,4.6,4.6,40,0.00,CLR,,0.00,WeatherDisplay:10.37,2013-03-16 23:09:00,
2013-03-16 19:14:00,75.1,48.4,29.99,SW,228,6.9,6.9,39,0.00,CLR,,0.00,WeatherDisplay:10.37,2013-03-16 23:14:00,
2013-03-16 19:19:00,74.8,49.5,29.99,WNW,290,2.3,2.3,41,0.00,CLR,,0.00,WeatherDisplay:10.37,2013-03-16 23:19:00,
2013-03-16 19:24:00,74.5,49.2,29.99,SSW,211,0.0,0.1,41,0.00,CLR,,0.00,WeatherDisplay:10.37,2013-03-16 23:24:00,
2013-03-16 19:29:00,74.2,49.6,30.00,SW,226,1.1,0.0,42,0.00,CLR,,0.00,WeatherDisplay:10.37,2013-03-16 23:29:00,
2013-03-16 19:34:00,73.8,50.5,30.00,SW,232,1.1,0.0,44,0.00,CLR,,0.00,WeatherDisplay:10.37,2013-03-16 23:34:00,
2013-03-16 19:39:00,73.5,49.0,30.00,WNW,302,1.1,0.0,42,0.00,CLR,,0.00,WeatherDisplay:10.37,2013-03-16 23:39:00,
2013-03-16 19:44:00,73.1,49.3,30.00,NNW,332,2.0,2.0,43,0.00,CLR,,0.00,WeatherDisplay:10.37,2013-03-16 23:44:00,
2013-03-16 19:49:00,72.8,49.0,30.00,NNW,331,3.5,3.5,43,0.00,CLR,,0.00,WeatherDisplay:10.37,2013-03-16 23:49:00,
2013-03-16 19:54:00,72.4,49.3,30.00,South,174,0.0,0.0,44,0.00,CLR,,0.00,WeatherDisplay:10.37,2013-03-16 23:54:00,
2013-03-16 19:59:00,72.1,49.0,30.00,NW,323,1.1,1.1,44,0.00,CLR,,0.00,WeatherDisplay:10.37,2013-03-16 23:59:00,
2013-03-16 20:04:00,71.7,49.2,30.01,NW,317,0.0,0.0,45,0.00,CLR,,0.00,WeatherDisplay:10.37,2013-03-17 00:04:00,
2013-03-16 20:09:00,71.4,49.5,30.01,WNW,284,0.0,0.1,46,0.00,CLR,,0.00,WeatherDisplay:10.37,2013-03-17 00:09:00,
2013-03-16 20:14:00,71.0,49.2,30.01,WSW,246,3.5,0.0,46,0.00,CLR,,0.00,WeatherDisplay:10.37,2013-03-17 00:14:00,
2013-03-16 20:19:00,70.8,49.0,30.01,ESE,111,1.1,0.0,46,0.00,CLR,,0.00,WeatherDisplay:10.37,2013-03-17 00:19:00,
2013-03-16 20:24:00,70.5,49.3,30.02,SSW,206,2.3,0.0,47,0.00,CLR,,0.00,WeatherDisplay:10.37,2013-03-17 00:24:00,
2013-03-16 20:29:00,70.2,49.6,30.02,SSW,206,1.0,0.0,48,0.00,CLR,,0.00,WeatherDisplay:10.37,2013-03-17 00:29:00,
2013-03-16 20:34:00,69.9,49.3,30.02,SSW,209,1.1,0.0,48,0.00,CLR,,0.00,WeatherDisplay:10.37,2013-03-17 00:34:00,
2013-03-16 20:39:00,69.6,49.6,30.02,SW,219,1.1,1.1,49,0.00,CLR,,0.00,WeatherDisplay:10.37,2013-03-17 00:39:00,
2013-03-16 20:44:00,69.3,49.3,30.02,WSW,249,3.5,0.0,49,0.00,CLR,,0.00,WeatherDisplay:10.37,2013-03-17 00:44:00,
2013-03-16 20:49:00,69.1,49.1,30.02,WSW,237,2.0,2.0,49,0.00,CLR,,0.00,WeatherDisplay:10.37,2013-03-17 00:49:00,
2013-03-16 20:54:00,68.9,50.0,30.02,SW,225,1.1,0.0,51,0.00,CLR,,0.00,WeatherDisplay:10.37,2013-03-17 00:54:00,
2013-03-16 20:59:00,68.7,49.8,30.03,WSW,253,1.1,1.1,51,0.00,CLR,,0.00,WeatherDisplay:10.37,2013-03-17 00:59:00,
2013-03-16 21:04:00,68.4,49.6,30.03,WSW,253,1.1,1.1,51,0.00,CLR,,0.00,WeatherDisplay:10.37,2013-03-17 01:04:00,
2013-03-16 21:09:00,68.1,49.3,30.03,WSW,253,0.0,0.0,51,0.00,CLR,,0.00,WeatherDisplay:10.37,2013-03-17 01:09:00,
2013-03-16 21:14:00,67.9,49.6,30.03,WSW,253,0.0,0.2,52,0.00,CLR,,0.00,WeatherDisplay:10.37,2013-03-17 01:14:00,
2013-03-16 21:19:00,67.6,49.3,30.03,South,176,4.6,0.0,52,0.00,CLR,,0.00,WeatherDisplay:10.37,2013-03-17 01:19:00,
2013-03-16 21:24:00,67.3,49.1,30.04,WSW,252,0.0,0.0,52,0.00,CLR,,0.00,WeatherDisplay:10.37,2013-03-17 01:24:00,
2013-03-16 21:29:00,67.1,49.4,30.04,WSW,252,1.1,0.0,53,0.00,CLR,,0.00,WeatherDisplay:10.37,2013-03-17 01:29:00,
2013-03-16 21:34:00,66.8,49.6,30.04,SSW,200,2.0,2.0,54,0.00,CLR,,0.00,WeatherDisplay:10.37,2013-03-17 01:34:00,
2013-03-16 21:39:00,66.6,48.9,30.04,SW,228,2.3,2.3,53,0.00,CLR,,0.00,WeatherDisplay:10.37,2013-03-17 01:39:00,
2013-03-16 21:44:00,66.3,48.7,30.04,WSW,251,3.5,3.5,53,0.00,CLR,,0.00,WeatherDisplay:10.37,2013-03-17 01:44:00,
2013-03-16 21:49:00,66.1,49.0,30.04,SSW,210,4.0,4.0,54,0.00,CLR,,0.00,WeatherDisplay:10.37,2013-03-17 01:49:00,
2013-03-16 21:54:00,65.9,48.8,30.04,West,267,1.1,0.0,54,0.00,CLR,,0.00,WeatherDisplay:10.37,2013-03-17 01:54:00,
2013-03-16 21:59:00,65.6,48.0,30.05,SW,232,1.1,1.1,53,0.00,CLR,,0.00,WeatherDisplay:10.37,2013-03-17 01:59:00,
2013-03-16 22:04:00,65.5,47.9,30.05,SSW,194,2.0,2.0,53,0.00,CLR,,0.00,WeatherDisplay:10.37,2013-03-17 02:04:00,
2013-03-16 22:09:00,65.4,47.3,30.05,WSW,254,3.5,0.0,52,0.00,CLR,,0.00,WeatherDisplay:10.37,2013-03-17 02:09:00,
2013-03-16 22:14:00,65.2,46.6,30.05,WSW,245,3.5,0.0,51,0.00,CLR,,0.00,WeatherDisplay:10.37,2013-03-17 02:14:00,
2013-03-16 22:19:00,65.1,47.0,30.05,SSW,205,3.5,3.5,52,0.00,CLR,,0.00,WeatherDisplay:10.37,2013-03-17 02:19:00,
2013-03-16 22:24:00,65.0,46.4,30.05,SW,233,4.6,4.6,51,0.00,CLR,,0.00,WeatherDisplay:10.37,2013-03-17 02:24:00,
2013-03-16 22:29:00,64.8,45.7,30.05,SSW,205,2.3,2.3,50,0.00,CLR,,0.00,WeatherDisplay:10.37,2013-03-17 02:29:00,
2013-03-16 22:34:00,64.7,46.1,30.06,South,173,3.5,3.5,51,0.00,CLR,,0.00,WeatherDisplay:10.37,2013-03-17 02:34:00,
2013-03-16 22:39:00,64.4,45.9,30.06,SW,232,1.1,1.1,51,0.00,CLR,,0.00,WeatherDisplay:10.37,2013-03-17 02:39:00,
2013-03-16 22:44:00,64.3,45.3,30.06,SW,219,1.1,1.1,50,0.00,CLR,,0.00,WeatherDisplay:10.37,2013-03-17 02:44:00,
2013-03-16 22:49:00,64.1,45.1,30.06,SW,236,3.5,3.5,50,0.00,CLR,,0.00,WeatherDisplay:10.37,2013-03-17 02:49:00,
2013-03-16 22:54:00,64.0,45.5,30.06,SW,232,1.1,1.1,51,0.00,CLR,,0.00,WeatherDisplay:10.37,2013-03-17 02:54:00,
2013-03-16 22:59:00,63.8,45.3,30.06,SW,233,1.1,1.1,51,0.00,CLR,,0.00,WeatherDisplay:10.37,2013-03-17 02:59:00,
2013-03-16 23:04:00,63.6,45.6,30.06,WSW,258,3.5,3.5,52,0.00,CLR,,0.00,WeatherDisplay:10.37,2013-03-17 03:04:00,
2013-03-16 23:09:00,63.4,45.5,30.07,SSE,150,0.0,0.3,52,0.00,CLR,,0.00,WeatherDisplay:10.37,2013-03-17 03:09:00,
2013-03-16 23:14:00,63.2,45.3,30.07,WSW,250,4.0,4.0,52,0.00,CLR,,0.00,WeatherDisplay:10.37,2013-03-17 03:14:00,
2013-03-16 23:19:00,63.1,45.2,30.06,WNW,290,4.6,4.6,52,0.00,CLR,,0.00,WeatherDisplay:10.37,2013-03-17 03:19:00,
2013-03-16 23:24:00,62.9,45.0,30.06,SW,234,2.3,2.3,52,0.00,CLR,,0.00,WeatherDisplay:10.37,2013-03-17 03:24:00,
2013-03-16 23:29:00,62.8,44.9,30.06,SW,214,5.8,5.8,52,0.00,CLR,,0.00,WeatherDisplay:10.37,2013-03-17 03:29:00,
2013-03-16 23:34:00,62.7,45.3,30.06,WSW,246,3.5,3.5,53,0.00,CLR,,0.00,WeatherDisplay:10.37,2013-03-17 03:34:00,
2013-03-16 23:39:00,62.5,45.1,30.06,WNW,285,2.3,2.3,53,0.00,CLR,,0.00,WeatherDisplay:10.37,2013-03-17 03:39:00,
2013-03-16 23:44:00,62.3,44.9,30.06,WSW,250,3.5,3.5,53,0.00,CLR,,0.00,WeatherDisplay:10.37,2013-03-17 03:44:00,
2013-03-16 23:49:00,62.2,45.3,30.06,WSW,247,1.1,0.0,54,0.00,CLR,,0.00,WeatherDisplay:10.37,2013-03-17 03:49:00,
2013-03-16 23:54:00,62.0,45.2,30.06,SSE,156,1.1,0.0,54,0.00,CLR,,0.00,WeatherDisplay:10.37,2013-03-17 03:54:00,
2013-03-16 23:59:00,61.8,45.5,30.06,West,281,4.6,4.6,55,0.00,CLR,,0.00,WeatherDisplay:10.37,2013-03-17 03:59:00,